[[{"header":{"parameterUnit":"m.s-1","parameterCategory":1,"la1":30.2991,"la2":30.254,"lo1":-89.0895,"lo2":-89.0444,"dy":0.0017,"dx":0.0017,"nx":28,"ny":28,"refTime":"2025-09-15T21:00:00:Z","depth":0,"parameterNumber":2,"parameterNumberName":"U-component_of_WINDS"},"data":[0,0,0,0,0,0,0,0,0,0,0,0,0,0,0,0,0,0,0,0,0,0,0,0,0,0,0,0,0,0,0,0,0,0,0,0,0,0,0,0,0,0,0,0,0,0,0,0,0,0,0,0,0,0,0,0,0,0,0.0223,0.0224,0,0.0293,0.0294,0.0294,0.0332,0.0332,0.0332,0.0332,0.0405,0.0407,0.0409,0,0,0,0,0,0,0,0,0,0,0,0,0,0.0124,0.0126,0.0223,0.0224,0.0225,0.0293,0.0294,0.0295,0.0332,0.0332,0.0332,0.0332,0.0404,0.0407,0.0409,0,0,0,0,0,0,0,0,0,0,0,0,0,0.0178,0.0126,0.0223,0.0252,0.0255,0.0293,0.0294,0.0295,0.0332,0.0332,0.0332,0.0332,0.0404,0.0406,0.0409,0.0424,0,0,0.0418,0.0419,0,0,0,0,0,0,0,0,0.0175,0.0181,0.0247,0.025,0.0254,0.0304,0.0286,0.0338,0.0332,0.0303,0.0332,0.0332,0.0371,0.0377,0.039,0.0428,0.0431,0.0418,0.042,0.0421,0.0422,0,0,0,0,0,0,0,0.0171,0.0179,0.0251,0.0248,0.0252,0.0262,0.0269,0.0296,0.0336,0.0305,0.0308,0.0316,0.0373,0.0387,0.0392,0.0432,0.0418,0.042,0.0422,0.0423,0.0485,0.0485,0,0,0,0,0,0,0.0162,0.0175,0.0249,0.0253,0.0214,0.0263,0.0272,0.0288,0.0335,0.0343,0.0316,0.0317,0.0382,0.0388,0.0394,0.0415,0.0421,0.0424,0.0425,0.0485,0.0485,0.0485,0,0,0,0,0,0,0.016,0.0169,0.0246,0.0215,0.0226,0.0265,0.0282,0.0289,0.0302,0.0343,0.0351,0.0322,0.0382,0.039,0.0416,0.0418,0.0425,0.0427,0.0485,0.0485,0.0485,0.0456,0,0,0,0,0,0,0.0157,0.0168,0.0173,0.0215,0.0227,0.0266,0.0282,0.029,0.0307,0.031,0.0351,0.0358,0.0383,0.0412,0.0419,0.0422,0.043,0.0485,0.0485,0.0485,0.0457,0.0455,0.0453,0,0,0,0,0,0.0154,0.0163,0.0174,0.0182,0.0235,0.0266,0.0273,0.0301,0.0307,0.0313,0.0339,0.0357,0.0416,0.0414,0.0423,0.0426,0.0485,0.0485,0.0485,0.0458,0.0455,0.0453,0,0,0,0,0,0,0.0121,0.0169,0.0181,0.0204,0.0231,0.0272,0.0281,0.0298,0.0324,0.0325,0.0359,0.0368,0.0391,0.0411,0.0408,0.0443,0.0453,0.0454,0.0429,0.0427,0.0425,0.0419,0.0432,0,0,0,0,0,0.0117,0.0138,0.0178,0.0195,0.0207,0.0242,0.0256,0.0275,0.0305,0.0316,0.0344,0.0372,0.0398,0.0413,0.0439,0.046,0.0469,0.0467,0.0465,0.0463,0.0464,0.0476,0.0475,0.0485,0.0485,0.0485,0,0,0.0108,0.0136,0.0148,0.0189,0.0212,0.0233,0.0251,0.0273,0.0289,0.032,0.0346,0.0367,0.0401,0.0424,0.0436,0.0442,0.0463,0.0463,0.0461,0.0463,0.0476,0.0475,0.0474,0.0485,0.0485,0.0485,0,0,0.0102,0.0126,0.0142,0.0164,0.0198,0.0221,0.0225,0.0264,0.0279,0.0306,0.0329,0.0349,0.0392,0.0414,0.0432,0.0434,0.0451,0.0441,0.0431,0.0443,0.0442,0.0441,0.0442,0.0441,0.0442,0.0442,0.0442,0,0.0087,0.0119,0.0148,0.0168,0.0186,0.0214,0.023,0.0251,0.0292,0.0303,0.0309,0.0363,0.0387,0.0416,0.0416,0.043,0.0435,0.0437,0.0439,0.0439,0.0439,0.044,0.044,0.0441,0.0441,0.0441,0.0441,0,0.0099,0.0121,0.0129,0.0167,0.0186,0.0204,0.0236,0.0251,0.0268,0.0291,0.0317,0.0347,0.0379,0.0387,0.0405,0.0419,0.0421,0.0433,0.0443,0.0436,0.0437,0.0438,0.0439,0.0439,0.0439,0.044,0,0,0.0075,0.0128,0.0131,0.0148,0.0187,0.0205,0.0225,0.0255,0.0267,0.0294,0.0311,0.0346,0.0357,0.0377,0.0397,0.0407,0.0406,0.0418,0.0419,0.0414,0.0423,0.0413,0.0413,0.0418,0.0418,0.0418,0.042,0,0.0075,0.011,0.0136,0.0162,0.0183,0.021,0.0227,0.0253,0.0274,0.0295,0.0319,0.0342,0.0355,0.0367,0.0378,0.0404,0.0408,0.0404,0.0434,0.0435,0.0424,0.0414,0.0404,0.0404,0.042,0.042,0.0421,0,0.0079,0.0104,0.0132,0.0168,0.0178,0.0192,0.0222,0.0242,0.0272,0.0287,0.0308,0.0329,0.0351,0.0359,0.0389,0.0386,0.04,0.0414,0.0415,0.0419,0.0427,0.0417,0.0405,0.0404,0.0422,0.0422,0.0422,0,0.0058,0.0099,0.0121,0.0135,0.0178,0.0188,0.0207,0.0237,0.0253,0.0279,0.029,0.0319,0.0334,0.0356,0.0384,0.0387,0.0411,0.0422,0.0424,0.0423,0.0428,0.0427,0.0418,0.0437,0.0437,0.0437,0.0437,0,0.0055,0.0071,0.0112,0.0125,0.0143,0.0174,0.0191,0.0212,0.0239,0.0256,0.0282,0.0298,0.0334,0.0355,0.0377,0.0399,0.0406,0.0419,0.0424,0.0416,0.0414,0.0425,0.0426,0.0437,0.0437,0.0437,0.0437,0,0.0035,0.0063,0.0088,0.0127,0.0137,0.0149,0.0182,0.0196,0.0219,0.0241,0.0248,0.0283,0.0309,0.0339,0.0375,0.039,0.0409,0.0418,0.0399,0.0402,0.0402,0.0401,0.0399,0.04,0.0419,0.0419,0.0419,0,0.0031,0.0043,0.0083,0.0096,0.0114,0.0136,0.0152,0.0183,0.0199,0.0234,0.0243,0.0271,0.0294,0.0334,0.0363,0.0391,0.04,0.0397,0.0404,0.0395,0.0399,0.0398,0.0399,0.0395,0.0395,0.0394,0.0394,0,0.002,0.0033,0.0056,0.0083,0.0102,0.0125,0.0149,0.0159,0.0194,0.0211,0.0237,0.0256,0.0292,0.0318,0.0349,0.0369,0.0387,0.0392,0.0393,0.0385,0.0373,0.0379,0.0393,0.0392,0.0392,0.0392,0.0392,0.0392,0.0008,0.002,0.0049,0.0073,0.0095,0.0117,0.0131,0.0155,0.0177,0.0208,0.0225,0.0251,0.0281,0.0324,0.0343,0.0363,0.037,0.0373,0.0373,0.0373,0.0371,0.037,0.0369,0.0369,0.037,0.037,0.037,0,-0.0002,0.0018,0.004,0.0072,0.0091,0.0106,0.0134,0.0149,0.0171,0.0197,0.0219,0.0249,0.0275,0.0306,0.0334,0.0344,0.0353,0.0351,0.035,0.0354,0.0364,0.0359,0.0343,0.0343,0.0343,0.0343,0.0343,0.0343,-0.0005,0.0016,0.0032,0.0064,0.0085,0.0109,0.0124,0.0144,0.0165,0.0196,0.0218,0.0238,0.0265,0.0296,0.032,0.0329,0.0338,0.0332,0.0343,0.0351,0.0354,0.0356,0.0351,0.0334,0.0334,0.0332,0.0332,0.0332]},{"header":{"parameterUnit":"m.s-1","parameterCategory":1,"la1":30.2991,"la2":30.254,"lo1":-89.0895,"lo2":-89.0444,"dy":0.0017,"dx":0.0017,"nx":28,"ny":28,"refTime":"2025-09-15T21:00:00:Z","depth":0,"parameterNumber":3,"parameterNumberName":"V-component_of_WINDS"},"data":[0,0,0,0,0,0,0,0,0,0,0,0,0,0,0,0,0,0,0,0,0,0,0,0,0,0,0,0,0,0,0,0,0,0,0,0,0,0,0,0,0,0,0,0,0,0,0,0,0,0,0,0,0,0,0,0,0,0,2.286,2.286,0,2.2792,2.2791,2.279,2.2801,2.2802,2.2803,2.2804,2.2728,2.2725,2.2722,0,0,0,0,0,0,0,0,0,0,0,0,0,2.2993,2.299,2.286,2.2859,2.2859,2.2792,2.2791,2.279,2.2801,2.2802,2.2804,2.2805,2.2729,2.2725,2.2722,0,0,0,0,0,0,0,0,0,0,0,0,0,2.2931,2.299,2.286,2.2856,2.2855,2.2792,2.2791,2.279,2.28,2.2802,2.2804,2.2806,2.273,2.2726,2.2721,2.2657,0,0,2.2707,2.2705,0,0,0,0,0,0,0,0,2.2934,2.2926,2.2857,2.2856,2.2855,2.2807,2.281,2.2745,2.28,2.2821,2.2804,2.2806,2.2752,2.2746,2.2729,2.2653,2.265,2.2706,2.2703,2.2701,2.27,0,0,0,0,0,0,0,2.2939,2.2929,2.2833,2.2856,2.2855,2.2855,2.2848,2.2798,2.2777,2.2819,2.282,2.2812,2.2752,2.2734,2.2727,2.2649,2.2706,2.2702,2.2699,2.2697,2.2513,2.2511,0,0,0,0,0,0,2.2945,2.2932,2.2835,2.2831,2.29,2.2851,2.2844,2.282,2.2778,2.2773,2.281,2.2813,2.2741,2.2733,2.2725,2.2644,2.2701,2.2697,2.2694,2.2515,2.2512,2.251,0,0,0,0,0,0,2.2948,2.2936,2.2838,2.2882,2.2869,2.2847,2.2821,2.2818,2.28,2.2771,2.2767,2.2796,2.2742,2.2731,2.2673,2.2641,2.2695,2.2691,2.2517,2.2514,2.2511,2.2483,0,0,0,0,0,0,2.2952,2.2937,2.2914,2.2881,2.2867,2.279,2.2819,2.2815,2.2792,2.2795,2.2757,2.2752,2.2742,2.268,2.2668,2.2636,2.2687,2.252,2.2516,2.2512,2.2487,2.248,2.2473,0,0,0,0,0,2.2957,2.2908,2.2913,2.2901,2.2838,2.2788,2.2779,2.2771,2.279,2.2765,2.2747,2.2753,2.2648,2.2674,2.2661,2.2627,2.2522,2.2517,2.2512,2.249,2.2481,2.2474,0,0,0,0,0,0,2.2936,2.2904,2.2909,2.2849,2.2821,2.279,2.2758,2.2763,2.2727,2.273,2.272,2.2711,2.2652,2.2634,2.2664,2.256,2.2587,2.2579,2.2574,2.2565,2.2559,2.2563,2.2683,0,0,0,0,0,2.2926,2.289,2.2863,2.2812,2.2798,2.2781,2.2759,2.2755,2.2725,2.2712,2.269,2.2658,2.2617,2.2591,2.2552,2.2485,2.2475,2.2455,2.2448,2.2443,2.2435,2.2395,2.2385,2.2495,2.2495,2.2495,0,0,2.2901,2.2879,2.2857,2.2808,2.2786,2.2746,2.2771,2.2728,2.2698,2.2705,2.2649,2.2631,2.2595,2.2531,2.2502,2.2514,2.2403,2.2437,2.2433,2.2428,2.2389,2.2379,2.237,2.2491,2.2492,2.2493,0,0,2.2837,2.2819,2.2773,2.2751,2.2718,2.2706,2.2696,2.2663,2.2652,2.2596,2.26,2.2562,2.2494,2.2467,2.2445,2.2369,2.2372,2.2357,2.232,2.2282,2.2273,2.2265,2.2235,2.2225,2.235,2.235,2.235,0,2.2811,2.2754,2.2749,2.2706,2.2682,2.269,2.2642,2.262,2.2575,2.2557,2.2573,2.2485,2.2462,2.239,2.2372,2.2355,2.2339,2.236,2.2275,2.2267,2.226,2.2231,2.222,2.2348,2.2349,2.2349,2.2349,0,2.2721,2.2681,2.2649,2.2606,2.258,2.2535,2.2521,2.2494,2.2492,2.2478,2.2419,2.2391,2.2346,2.2329,2.2327,2.2257,2.2265,2.2278,2.2304,2.2247,2.222,2.2209,2.2346,2.2346,2.2347,2.2347,0,0,2.2641,2.2598,2.2585,2.2565,2.2529,2.2496,2.245,2.2408,2.2383,2.2352,2.2311,2.2253,2.2264,2.2238,2.2233,2.2199,2.2137,2.2215,2.2214,2.2199,2.2054,2.2043,2.203,2.214,2.2138,2.2137,2.2056,0,2.2571,2.2492,2.2486,2.2413,2.2374,2.238,2.234,2.2311,2.2297,2.226,2.2244,2.2201,2.2221,2.2205,2.2172,2.2152,2.2107,2.2158,2.2098,2.2096,2.2105,2.2017,2.2005,2.193,2.2046,2.2044,2.2043,0,2.2479,2.2446,2.237,2.2337,2.232,2.2284,2.2244,2.221,2.2177,2.2168,2.2139,2.2138,2.2088,2.2118,2.2046,2.2081,2.2056,2.2042,2.2039,2.2031,2.2064,2.2003,2.1907,2.1894,2.2026,2.2028,2.2029,0,2.2424,2.2361,2.2306,2.229,2.2251,2.2225,2.2207,2.2177,2.2151,2.2114,2.2097,2.2055,2.2031,2.1997,2.1984,2.2007,2.1912,2.1941,2.19,2.19,2.1878,2.1879,2.1773,2.1867,2.1867,2.1867,2.1868,0,2.2345,2.2297,2.2281,2.2247,2.2193,2.2186,2.2132,2.2115,2.2087,2.2048,2.2051,2.2014,2.2,2.1959,2.1948,2.1889,2.1879,2.1868,2.1865,2.1866,2.1867,2.1848,2.1851,2.1864,2.1865,2.1866,2.1866,0,2.2274,2.2262,2.2202,2.2171,2.2162,2.2123,2.2095,2.206,2.2047,2.1997,2.1985,2.1963,2.1915,2.19,2.1842,2.1834,2.1764,2.1767,2.1775,2.1774,2.1733,2.1736,2.1608,2.159,2.1699,2.1698,2.1697,0,2.2222,2.2186,2.2151,2.2126,2.2108,2.2067,2.2041,2.2032,2.2004,2.1963,2.1933,2.1887,2.1849,2.1772,2.1749,2.1704,2.1704,2.1662,2.1697,2.1698,2.1699,2.17,2.1695,2.1655,2.1654,2.1653,2.1652,0,2.2132,2.2127,2.2091,2.2051,2.202,2.1988,2.1957,2.1936,2.1922,2.189,2.1843,2.1813,2.1754,2.1707,2.1661,2.164,2.1642,2.1642,2.1629,2.1628,2.1634,2.1627,2.1754,2.1644,2.1645,2.1646,2.1646,2.1646,2.2067,2.2034,2.2003,2.1962,2.1938,2.1909,2.1874,2.1857,2.1818,2.177,2.1767,2.1715,2.168,2.1619,2.1596,2.1553,2.1564,2.1547,2.1542,2.1537,2.1532,2.1643,2.1545,2.1545,2.1545,2.1545,2.1545,0,2.1973,2.1954,2.1916,2.1873,2.184,2.1848,2.1814,2.1784,2.1739,2.1708,2.1671,2.1614,2.1568,2.1542,2.1494,2.1465,2.1464,2.1452,2.1453,2.1447,2.1527,2.1541,2.1453,2.1453,2.1453,2.1453,2.1453,2.1453,2.1921,2.1864,2.1856,2.1787,2.1768,2.1718,2.1697,2.1669,2.1644,2.1581,2.1543,2.1528,2.1497,2.1448,2.1404,2.1398,2.1378,2.1365,2.1358,2.1432,2.1442,2.1451,2.1464,2.1361,2.1361,2.1282,2.1281,2.1281]}]]